Location: Conflandey
(47.7287°N, 6.0456°E)
Time: 03:49:18
(UTC+00:00)

ATLAS 3B R/B - Pass Details

Date: 24 October 2021
Orbit: 989 x 1206 km, 63.8° (Epoch: 25 November)

Event Time Altitude Azimuth Distance (km) Brightness Sun altitude
Rises 19:34:07 0° 295° (WNW) 3,807 6.7 -31.2°
Reaches altitude 10° 19:37:28 10° 311° (NW) 2,890 5.7 -31.7°
Maximum altitude 19:42:30 21° 359° (N) 2,236 4.5 -32.5°
Enters shadow 19:44:27 19° 21° (NNE) 2,371 4.5 -32.8°
